TimePST,TemperatureF,Dew PointF,Humidity,Sea Level PressureIn,VisibilityMPH,Wind Direction,Wind SpeedMPH,Gust SpeedMPH,PrecipitationIn,Events,Conditions,WindDirDegrees,DateUTC
12:15 AM,33.8,32.0,93,30.59,4.0,Calm,Calm,-,N/A,,Overcast,0,2013-01-15 08:15:00
12:45 AM,33.8,32.0,93,30.59,2.5,Calm,Calm,-,0.00,Rain,Light Rain,0,2013-01-15 08:45:00
12:53 AM,34.0,32.0,92,30.59,3.0,Calm,Calm,-,0.00,,Overcast,0,2013-01-15 08:53:00
1:11 AM,33.8,32.0,93,30.59,2.0,Calm,Calm,-,N/A,,Overcast,0,2013-01-15 09:11:00
1:20 AM,33.8,32.0,93,30.59,2.5,Calm,Calm,-,N/A,,Overcast,0,2013-01-15 09:20:00
1:27 AM,33.8,32.0,93,30.59,3.0,Calm,Calm,-,N/A,,Overcast,0,2013-01-15 09:27:00
1:53 AM,34.0,32.0,92,30.60,4.0,Calm,Calm,-,N/A,,Overcast,0,2013-01-15 09:53:00
2:19 AM,33.8,32.0,93,30.60,2.0,Calm,Calm,-,0.01,,Overcast,0,2013-01-15 10:19:00
2:43 AM,33.8,32.0,93,30.61,3.0,Calm,Calm,-,0.01,,Overcast,0,2013-01-15 10:43:00
2:53 AM,34.0,32.0,92,30.62,3.0,Calm,Calm,-,0.01,,Overcast,0,2013-01-15 10:53:00
3:30 AM,33.8,33.8,100,30.62,2.0,Calm,Calm,-,N/A,,Overcast,0,2013-01-15 11:30:00
4:17 AM,33.8,33.8,100,30.62,2.5,Calm,Calm,-,0.01,Rain,Light Rain,0,2013-01-15 12:17:00
4:32 AM,33.8,32.0,93,30.62,3.0,Calm,Calm,-,0.01,,Overcast,0,2013-01-15 12:32:00
4:53 AM,34.0,32.0,92,30.61,4.0,Calm,Calm,-,0.01,,Overcast,0,2013-01-15 12:53:00
5:53 AM,34.0,32.0,92,30.62,4.0,Calm,Calm,-,N/A,,Overcast,0,2013-01-15 13:53:00
6:53 AM,34.0,32.0,92,30.63,6.0,Calm,Calm,-,N/A,,Overcast,0,2013-01-15 14:53:00
7:31 AM,33.8,32.0,93,30.64,6.0,Calm,Calm,-,N/A,,Overcast,0,2013-01-15 15:31:00
7:53 AM,34.0,32.0,92,30.65,6.0,Calm,Calm,-,N/A,,Overcast,0,2013-01-15 15:53:00
8:16 AM,33.8,32.0,93,30.65,7.0,Calm,Calm,-,N/A,,Overcast,0,2013-01-15 16:16:00
8:21 AM,35.6,32.0,87,30.65,6.0,Calm,Calm,-,N/A,,Overcast,0,2013-01-15 16:21:00
8:53 AM,35.1,32.0,89,30.67,4.0,Calm,Calm,-,N/A,,Overcast,0,2013-01-15 16:53:00
9:53 AM,35.1,33.1,92,30.68,6.0,WNW,4.6,-,N/A,,Overcast,300,2013-01-15 17:53:00
10:53 AM,36.0,33.1,89,30.68,8.0,NW,3.5,-,N/A,,Overcast,310,2013-01-15 18:53:00
11:53 AM,36.0,33.1,89,30.67,8.0,NW,5.8,-,N/A,,Overcast,310,2013-01-15 19:53:00
1:53 PM,36.0,33.1,89,30.66,10.0,NW,5.8,-,N/A,,Overcast,310,2013-01-15 21:53:00
2:53 PM,37.9,33.1,83,30.66,10.0,Variable,4.6,-,N/A,,Overcast,0,2013-01-15 22:53:00
3:02 PM,37.4,33.8,87,30.66,10.0,North,3.5,-,N/A,,Overcast,360,2013-01-15 23:02:00
3:53 PM,37.0,33.1,86,30.67,10.0,NNW,4.6,-,N/A,,Overcast,330,2013-01-15 23:53:00
4:17 PM,37.4,33.8,87,30.67,10.0,NW,4.6,-,N/A,,Overcast,310,2013-01-16 00:17:00
4:24 PM,37.4,33.8,87,30.67,10.0,NW,5.8,-,N/A,,Overcast,310,2013-01-16 00:24:00
4:39 PM,37.4,33.8,87,30.67,10.0,NW,4.6,-,N/A,,Overcast,320,2013-01-16 00:39:00
4:53 PM,37.0,33.1,86,30.67,10.0,NNW,4.6,-,N/A,,Overcast,340,2013-01-16 00:53:00
5:53 PM,36.0,32.0,86,30.67,10.0,NW,4.6,-,N/A,,Overcast,320,2013-01-16 01:53:00
6:53 PM,36.0,30.9,82,30.67,10.0,WNW,3.5,-,N/A,,Overcast,300,2013-01-16 02:53:00
7:53 PM,36.0,30.9,82,30.67,10.0,NW,4.6,-,N/A,,Overcast,320,2013-01-16 03:53:00
8:53 PM,36.0,30.9,82,30.67,10.0,Calm,Calm,-,N/A,,Overcast,0,2013-01-16 04:53:00
10:53 PM,36.0,32.0,86,30.66,10.0,Calm,Calm,-,N/A,,Overcast,0,2013-01-16 06:53:00
11:53 PM,36.0,32.0,86,30.66,10.0,Calm,Calm,-,N/A,,Overcast,0,2013-01-16 07:53:00